Preview of NWS' New Version of Forecast
This preview is not operational and should not be used for support decisions.

Regional Weather Roundup (RWR)

Issued by National Weather Service (NWS)

                            
000
ASUS43 KDMX 180006
RWRIA 

WEATHER ROUNDUP FOR IOWA
NATIONAL WEATHER SERVICE DES MOINES IA
700 PM CDT WED APR 17 2019

NOTE: "FAIR" INDICATES FEW OR NO CLOUDS BELOW 12,000 FEET WITH NO
SIGNIFICANT WEATHER AND/OR OBSTRUCTIONS TO VISIBILITY.

* - THESE STATIONS ARE NOT NWS STATIONS...THUS NOT UNDER NWS
QUALITY CONTROL.  THEY ALSO DO NOT REPORT WEATHER SUCH 
AS PRECIPITATION OR FOG.  

IAZ001>003-012>014-020>022-031>034-043>046-180100-
   NORTHWEST IOWA
  
CITY           SKY/WX    TMP DP  RH WIND       PRES   REMARKS
CARROLL *      CLOUDY    54  50  87 NW24      29.67R                  
CHEROKEE *     CLOUDY    49  46  87 NW16G24   29.68F                  
DENISON *      CLOUDY    54  48  82 NW16G24   29.71R                  
LE MARS *      PTSUNNY   50  46  87 NW16G29   29.71S                  
SHELDON *      CLOUDY    45  45 100 NW18G28   29.70R                  
SIOUX CITY     PTSUNNY   52  43  71 NW25G37   29.70S                  
6HR MIN TEMP:  52; 6HR MAX TEMP:  59; 6HR PCP: TRACE;                

SPENCER        CLOUDY    47  42  83 NW22G35   29.67R                  
6HR MIN TEMP:  47; 6HR MAX TEMP:  65; 6HR PCP:  0.30;                

STORM LAKE *   CLOUDY    48  48 100 NW22G30   29.64R                  
$$
 
IAZ055>058-069>071-079>083-090>094-180100-
   SOUTHWEST IOWA
  
CITY           SKY/WX    TMP DP  RH WIND       PRES   REMARKS
ATLANTIC *     PTSUNNY   61  52  72 NW20G28   29.68R                  
AUDUBON *      CLOUDY    55  48  76 CALM      29.70R                  
CLARINDA *     CLOUDY    66  50  55 N18       29.69R                  
COUNCIL BLFS * CLOUDY    57  48  72 NW16G30   29.71R                  
CRESTON *      SUNNY     63  50  63 NW24G32   29.65R                  
HARLAN  *      CLOUDY    57  50  77 NW23      29.70R                  
LAMONI         CLOUDY    65  56  72 NW16G28   29.65R                  
6HR MIN TEMP:  63; 6HR MAX TEMP:  75; 6HR PCP:  0.26;                

RED OAK *      PTSUNNY   64  48  55 NW20G26   29.69R                  
SHENANDOAH *   SUNNY     66  48  52 NW16G23   29.68R                  
$$
 
IAZ047>049-059>061-072>074-084-180100-
   CENTRAL IOWA
  
CITY           SKY/WX    TMP DP  RH WIND       PRES   REMARKS
AMES           CLOUDY    56  50  80 W20G29    29.64R                  
6HR MIN TEMP:  56; 6HR MAX TEMP:  75; 6HR PCP:  0.25;                

ANKENY *       CLOUDY    59  52  77 MISG      29.65R                  
BOONE *        CLOUDY    54  54 100 W21G28    29.64R                  
CHARITON *     DRIZZLE   68  64  88 W7        29.59F                  
DES MOINES     MOCLDY    59  50  72 NW22G36   29.64R                  
6HR MIN TEMP:  59; 6HR MAX TEMP:  77; 6HR PCP:  0.18;                

GRINNELL*      CLOUDY    64  58  80 W21G28    29.61R                  
KNOXVILLE *    CLOUDY    70  61  73 W20G26    29.60R                  
MARSHALLTOWN   CLOUDY    59  55  87 W24G37    29.59R                  
6HR MIN TEMP:  59; 6HR MAX TEMP:  74; 6HR PCP:  0.02;                

NEWTON *       CLOUDY    61  57  88 W20G28    29.62R                  
PELLA *        CLOUDY    67  59  76 NW15      29.61R                  
PERRY *        CLOUDY    56  51  84 NW15G25   29.67R                  
$$
 
IAZ004>006-015-016-023>025-035-036-180100-
   NORTH CENTRAL IOWA
  
CITY           SKY/WX    TMP DP  RH WIND       PRES   REMARKS
ALGONA *       CLOUDY    48  48 100 NW21G30   29.61R                  
CLARION *      CLOUDY    52  48  87 NW22G28   29.60R                  
ESTHERVILLE    CLOUDY    44  42  93 NW25G35   29.63R                  
6HR MIN TEMP:  44; 6HR MAX TEMP:  62; 6HR PCP:  0.32;                

FORT DODGE *   CLOUDY    51  47  86 NW13G24   29.62R                  
MASON CITY     CLOUDY    51  50  96 NW25G33   29.56R                  
6HR MIN TEMP:  51; 6HR MAX TEMP:  65; 6HR PCP:  0.32;                

FOREST CITY *  CLOUDY    50  50 100 NW20      29.57R                  
IOWA FALLS *   CLOUDY    56  52  88 W26G32    29.59R                  
$$

IAZ007>011-017>019-026>030-037>042-050>054-066-180100-
   NORTHEAST IOWA
  
CITY           SKY/WX    TMP DP  RH WIND       PRES   REMARKS
CEDAR RAPIDS   TSTM      61  59  93 W16G36    29.55R                  
6HR MIN TEMP:  61; 6HR MAX TEMP:  77; 6HR PCP:  0.04;                

CHARLES CITY * CLOUDY    59  55  88 W18G26    29.52R                  
CLINTON *      CLOUDY    74  59  59 SW16      29.54S                  
DECORAH *      LGT RAIN  61  57  88 W8G17     29.48S                  
DUBUQUE        FAIR      70  56  61 SW16      29.50F                  
6HR MIN TEMP:  65; 6HR MAX TEMP:  72;                                

MONTICELLO *   FAIR      72  59  64 S13       29.49F                  
OELWEIN *      MOCLDY    63  63 100 W20G28    29.52R                  
WATERLOO       MOCLDY    63  56  78 W22G29    29.53R                  
6HR MIN TEMP:  63; 6HR MAX TEMP:  73; 6HR PCP:  0.01;                

$$
 
IAZ064-065-067-068-078-180100-
   EAST CENTRAL IOWA
  
CITY           SKY/WX    TMP DP  RH WIND       PRES   REMARKS
DAVENPORT      MOCLDY    75  55  49 SW22G32   29.56S                  
6HR MIN TEMP:  74; 6HR MAX TEMP:  78;                                

IOWA CITY      FAIR      73  57  57 SW14G23   29.57R                  
6HR MIN TEMP:  73; 6HR MAX TEMP:  78;                                

MT. PLEASANT * CLOUDY    73  59  60 SW22      29.60R                  
MUSCATINE *    FAIR      75  57  53 SW17G28   29.56R                  
QUAD CITIES    MOCLDY    77  57  50 SW14G32   29.54R                  
6HR MIN TEMP:  77; 6HR MAX TEMP:  81;                                

$$
 
IAZ062-063-075>077-085>089-095>099-180100-
   SOUTHEAST IOWA
  
CITY           SKY/WX    TMP DP  RH WIND       PRES   REMARKS
BURLINGTON     MOCLDY    73  57  57 SW21G29   29.59R                  
6HR MIN TEMP:  73; 6HR MAX TEMP:  79;                                

FAIRFIELD *    PTCLDY    72  57  60 SW18      29.57R                  
FORT MADISON * MOCLDY    73  59  60 SW15G22   29.61S                  
KEOKUK *       CLOUDY    73  59  60 SW16      29.60F                  
OSKALOOSA *    CLOUDY    72  57  59 SW22G28   29.57R                  
CENTERVILLE *  LGT RAIN  68  61  77 W21G26    29.63R                  
OTTUMWA        CLOUDY    73  57  57 SW13G26   29.57R                  
6HR MIN TEMP:  73; 6HR MAX TEMP:  77;                                

WASHINGTON *   CLEAR     73  59  60 SW18G30   29.57S                  
$$

ABBREVIATIONS USED IN REMARKS
   TC - TEMPERATURES IN CELSIUS
  WCI - WIND CHILL INDEX
   HX - HEAT INDEX
  VSB - VISIBILITY  
$$